Home   Weather   Odder Kommune   Past weeks
Flag for Denmark

Past Weather in Odder Kommune, Denmark — Yesterday and Last 2 Weeks

Now
57 °F

Passing clouds.


Feels Like: 55 °F
Forecast: 58 / 51 °F
Wind: 12 mph from Southwest

Location: Tirstrup

Current Time: Oct 14, 2019 at 3:08:23 am

Latest Report: Oct 14, 2019 at 2:20 am


Visibility: N/A

Pressure: 29.53 "Hg

Humidity: 88%

Dew Point: 54 °F

Location of Odder KommuneLocation

Past Weather in Odder Kommune — Graph

°F

Odder Kommune Temperature Yesterday

Maximum temperature yesterday: 59 °F (at 11:50 pm)
Minimum temperature yesterday: 48 °F (at 3:20 am)
Average temperature yesterday: 52 °F

High & Low Weather Summary for the Past Weeks

 TemperatureHumidityPressure
High61 °F (Sep 29, 1:50 pm)100% (Sep 29, 5:20 am)30.27 "Hg (Sep 29, 5:20 am)
Low32 °F (Oct 6, 1:20 am)51% (Sep 30, 4:50 pm)29.21 "Hg (Sep 29, 11:50 pm)
Average49 °F84%29.71 "Hg
* Reported Sep 29 1:20 am — Oct 14 1:50 am, Odder Kommune. Weather by CustomWeather, © 2019

Note: Actual official high and low records may vary slightly from our data, if they occured in-between our weather recording intervals... More about our weather records

Advertising

Odder Kommune Weather History for the Previous 24 Hours

Scroll right to see more
 ConditionsComfort  
Time TempWeatherWind HumidityBarometerVisibility
1:50 am
Mon, Oct 14
59 °FPassing clouds.12 mph88%29.53 "HgN/A
1:20 am59 °FPassing clouds.10 mph94%29.53 "HgN/A
12:50 am59 °FPassing clouds.9 mph94%29.53 "HgN/A
12:20 am59 °FPartly cloudy.8 mph100%29.53 "HgN/A
11:50 pm
Sun, Oct 13
59 °FPassing clouds.7 mph100%29.53 "HgN/A
11:20 pm57 °FSprinkles. Passing clouds.7 mph100%29.53 "HgN/A
10:20 pm54 °FLow clouds.7 mph100%29.53 "Hg5 mi
9:50 pm54 °FLight rain. Low clouds.9 mph100%29.56 "HgN/A
9:20 pm54 °FRain. Passing clouds.7 mph94%29.59 "Hg5 mi
8:50 pm52 °FRain. Passing clouds.10 mph100%29.62 "Hg4 mi
8:20 pm52 °FLight rain. Passing clouds.13 mph100%29.65 "HgN/A
7:50 pm52 °FLight rain. Low clouds.12 mph100%29.68 "HgN/A
7:20 pm52 °FLight rain. Passing clouds.12 mph100%29.68 "Hg5 mi
6:50 pm52 °FLight rain. Passing clouds.12 mph100%29.71 "HgN/A
6:20 pm54 °FLight rain. Overcast.9 mph94%29.74 "HgN/A
5:50 pm54 °FLight rain. Partly sunny.7 mph94%29.74 "HgN/A
5:20 pm54 °FDrizzle. Partly sunny.6 mph94%29.77 "HgN/A
4:50 pm54 °FLight rain. Partly sunny.7 mph94%29.80 "HgN/A
4:20 pm54 °FLight rain. Broken clouds.5 mph100%29.80 "HgN/A
3:50 pm55 °FDrizzle. Broken clouds.3 mph94%29.80 "HgN/A
3:20 pm54 °FLight rain. Partly sunny.5 mph94%29.83 "HgN/A
2:50 pm55 °FLight rain. Partly sunny.5 mph88%29.83 "HgN/A
2:20 pm55 °FPartly sunny.5 mph88%29.83 "HgN/A
1:50 pm57 °FPartly sunny.3 mph82%29.83 "HgN/A
1:20 pm57 °FPartly sunny.5 mph82%29.83 "HgN/A
12:50 pm55 °FPartly sunny.3 mph88%29.83 "HgN/A
12:20 pm55 °FPartly sunny.5 mph94%29.86 "HgN/A
11:50 am55 °FBroken clouds.5 mph94%29.86 "HgN/A
11:20 am55 °FPartly sunny.3 mph94%29.83 "HgN/A
10:50 am54 °FPartly sunny.2 mph94%29.83 "HgN/A
10:20 am54 °FPartly sunny.1 mph94%29.83 "HgN/A
9:50 am52 °FPartly sunny.1 mph94%29.83 "HgN/A
9:20 am52 °FPartly sunny.1 mph94%29.83 "HgN/A
8:50 am50 °FScattered clouds.2 mph94%29.83 "HgN/A
8:20 am50 °FPartly sunny.3 mph94%29.83 "HgN/A
7:50 am48 °FOvercast.5 mph100%29.80 "HgN/A
7:20 am48 °FPassing clouds.N/A100%29.80 "HgN/A
6:50 am48 °FPassing clouds.5 mph100%29.80 "HgN/A
6:20 am48 °FPassing clouds.3 mph94%29.80 "HgN/A
5:50 am48 °FPassing clouds.3 mph94%29.80 "HgN/A
5:20 am48 °FPassing clouds.3 mph94%29.80 "HgN/A
4:50 am48 °FPassing clouds.3 mph94%29.80 "HgN/A
4:20 am48 °FPassing clouds.3 mph94%29.77 "HgN/A
3:50 am48 °FPassing clouds.3 mph94%29.77 "HgN/A
3:20 am48 °FPassing clouds.5 mph94%29.77 "HgN/A
Weather by CustomWeather, © 2019

See weather overview